Hayward, CA

8:50 AM PDT on August 20, 2017 (GMT -0700)
Hayward Executive

Weather History for KHWD - March, 2014

Change the Weather History Date:

Wednesday, March 12, 2014

  Actual Average Record
Temperature  
Mean Temperature 64 °F 55 °F  
Max Temperature 75 °F 64 °F 79 °F (2007)
Min Temperature 52 °F 47 °F 40 °F (2009)
Degree Days  
Heating Degree Days 1    
Month to date heating degree days 79  
Since 1 July heating degree days 1597  
Cooling Degree Days 0    
Month to date cooling degree days 0  
Year to date cooling degree days 0  
Growing Degree Days 15 (Base 50)    
Moisture  
Dew Point 28 °F    
Average Humidity 32    
Maximum Humidity 47    
Minimum Humidity 17    
Precipitation  
Precipitation 0.00 in - 0.11 in (2006)
Month to date precipitation 0.26  
Year to date precipitation 2.63  
Since 1 July precipitation 3.83  
Sea Level Pressure  
Sea Level Pressure 30.06 in    
Wind  
Wind Speed 9 mph (NE)    
Max Wind Speed 25 mph    
Max Gust Speed 30 mph    
Visibility 10 miles    
Events      
T = Trace of Precipitation, MM = Missing Value Source: NWS Daily Summary

Daily Weather History Graph

Daily Weather History Graph

Search for Another Location

Airport or City:

Trip Planner

Search our weather history database for the weather conditions in past years. The results will help you decide how hot, cold, wet, or windy it might be!

Date:

Astronomy

Mar. 12, 2014 Rise Set
Actual Time 7:23 AM PDT 7:12 PM PDT
Civil Twilight 6:57 AM PDT 7:39 PM PDT
Nautical Twilight 6:27 AM PDT 8:09 PM PDT
Astronomical Twilight 5:56 AM PDT 8:40 PM PDT
Moon 3:51 PM PDT (3/12) 4:55 AM PDT (3/12)
Length of Visible Light 12h 41m
Length of Day
11h 49m
Waxing Gibbous, 86% of the Moon is Illuminated
Mar 12
Waxing Gibbous
Mar 16
Full
Mar 23
Last Quarter
Mar 30
New
Apr 7
First Quarter

Hourly Weather History & Observations

Time (PDT) Temp. Dew Point Humidity Pressure Visibility Wind Dir Wind Speed Gust Speed Precip Events Conditions
12:54 AM 55.9 °F 28.0 °F 34% 30.06 in 10.0 mi NNW 11.5 mph - N/A   Clear
1:54 AM 55.0 °F 27.0 °F 34% 30.05 in 10.0 mi NW 11.5 mph - N/A   Clear
2:54 AM 55.9 °F 24.1 °F 29% 30.04 in 10.0 mi NNW 6.9 mph - N/A   Clear
3:54 AM 60.1 °F 19.9 °F 21% 30.04 in 10.0 mi Calm Calm - N/A   Clear
4:54 AM 57.9 °F 21.0 °F 24% 30.04 in 10.0 mi Calm Calm - N/A   Clear
5:54 AM 57.9 °F 21.0 °F 24% 30.05 in 10.0 mi ENE 11.5 mph - N/A   Clear
6:54 AM 57.0 °F 21.9 °F 26% 30.06 in 10.0 mi NE 15.0 mph - N/A   Clear
7:54 AM 55.0 °F 25.0 °F 31% 30.08 in 10.0 mi ENE 11.5 mph - N/A   Clear
8:54 AM 57.9 °F 28.0 °F 32% 30.11 in 10.0 mi ENE 3.5 mph - N/A   Clear
9:54 AM 64.0 °F 28.0 °F 26% 30.12 in 10.0 mi NNE 8.1 mph - N/A   Clear
10:54 AM 66.9 °F 24.1 °F 20% 30.11 in 10.0 mi NE 23.0 mph 28.8 mph N/A   Clear
11:54 AM 70.0 °F 28.0 °F 21% 30.10 in 10.0 mi NE 18.4 mph 27.6 mph N/A   Clear
12:54 PM 73.0 °F 27.0 °F 18% 30.09 in 10.0 mi East 15.0 mph 23.0 mph N/A   Clear
1:54 PM 73.0 °F 28.9 °F 20% 30.08 in 10.0 mi NE 16.1 mph 25.3 mph N/A   Clear
2:54 PM 75.0 °F 30.0 °F 19% 30.06 in 10.0 mi NE 10.4 mph 18.4 mph N/A   Clear
3:54 PM 73.9 °F 28.9 °F 19% 30.05 in 10.0 mi NE 11.5 mph 21.9 mph N/A   Clear
4:54 PM 75.0 °F 30.0 °F 19% 30.03 in 10.0 mi East 9.2 mph 17.3 mph N/A   Clear
5:54 PM 73.9 °F 30.0 °F 20% 30.03 in 10.0 mi NE 16.1 mph - N/A   Clear
6:54 PM 72.0 °F 30.0 °F 21% 30.03 in 10.0 mi NE 8.1 mph - N/A   Clear
7:54 PM 68.0 °F 32.0 °F 26% 30.03 in 10.0 mi NNE 4.6 mph - N/A   Clear
8:54 PM 64.9 °F 33.1 °F 31% 30.05 in 10.0 mi NE 4.6 mph - N/A   Clear
9:54 PM 60.1 °F 34.0 °F 38% 30.06 in 10.0 mi Calm Calm - N/A   Clear
10:54 PM 57.9 °F 35.1 °F 42% 30.06 in 10.0 mi Calm Calm - N/A   Clear
11:54 PM 55.0 °F 35.1 °F 47% 30.06 in 10.0 mi ENE 4.6 mph - N/A   Clear